This demonstration page uses our WeatherBlox Daily Observations layout. Learn more.

Left ArrowRight Arrow

40.92945, -100.16068

Hourly Observations for January 17, 2021

Temp ( °F °C ) Dew Point ( °F °C ) Humidity (%) Winds ( mph kmh ) Pressure ( in mb ) Visibility ( mi km ) Precip ( " mm )
12:15 am 00:15 Partly Cloudy 35 1.9 26 -3.6 67 67 WNW 14 22 30.08 1019 10 16.0934 0 0
12:35 am 00:35 Partly Cloudy 34 1.1 25 -3.7 71 71 WNW 14 22 30.08 1018 10 16.0934 0 0
12:55 am 00:55 Clear 33 0.6 25 -3.9 72 72 WNW 15 24 30.08 1019 10 16.0934 0 0
1:15 am 01:15 Clear 33 0.5 25 -4 72 72 WNW 15 24 30.08 1019 10 16.0934 0 0
1:35 am 01:35 Clear 33 0.6 25 -3.8 73 73 WNW 18 30 30.08 1019 10 16.0934 0 0
1:55 am 01:55 Clear 32 0.2 25 -4 74 74 WNW 17 28 30.08 1019 10 16.0934 0 0
2:15 am 02:15 Clear 32 0 25 -4 75 75 WNW 15 24 30.09 1019 10 16.0934 0 0
2:35 am 02:35 Partly Cloudy 31 -0.4 25 -4.1 76 76 WNW 16 26 30.09 1019 10 16.0934 0 0
2:55 am 02:55 Mostly Cloudy 31 -0.5 24 -4.3 76 76 WNW 17 28 30.09 1019 10 16.0934 0 0
3:15 am 03:15 Partly Cloudy 31 -0.8 24 -4.4 77 77 WNW 17 28 30.09 1019 10 16.0934 0 0
3:35 am 03:35 Clear 31 -0.8 24 -4.6 76 76 WNW 16 26 30.09 1019 10 16.0934 0 0
3:55 am 03:55 Clear 30 -1 23 -4.8 76 76 WNW 16 26 30.1 1019 10 16.0934 0 0
4:15 am 04:15 Clear 30 -1.1 23 -5 75 75 WNW 17 28 30.1 1019 10 16.0934 0 0
4:35 am 04:35 Clear 29 -1.4 22 -5.5 74 74 WNW 17 28 30.09 1019 10 16.0934 0 0
4:55 am 04:55 Clear 29 -1.5 22 -5.7 73 73 WNW 17 28 30.1 1019 10 16.0934 0 0
5:15 am 05:15 Clear 29 -1.5 21 -6 72 72 WNW 18 30 30.1 1019 10 16.0934 0 0
5:35 am 05:35 Clear 29 -1.6 21 -6.2 71 71 WNW 17 28 30.1 1019 10 16.0934 0 0
5:55 am 05:55 Clear 29 -1.5 20 -6.5 69 69 WNW 15 24 30.11 1020 10 16.0934 0 0
6:15 am 06:15 Clear 29 -1.6 20 -6.6 69 69 WNW 15 24 30.12 1020 10 16.0934 0 0
6:35 am 06:35 Clear 29 -1.7 20 -6.9 68 68 NW 17 28 30.12 1020 10 16.0934 0 0
6:55 am 06:55 Clear 29 -1.8 19 -7 68 68 WNW 17 28 30.14 1020 10 16.0934 0 0
7:15 am 07:15 Clear 29 -1.9 19 -7.1 68 68 WNW 16 26 30.14 1021 10 16.0934 0 0
7:35 am 07:35 Clear 28 -2 19 -7.2 68 68 WNW 16 26 30.14 1021 10 16.0934 0 0
7:55 am 07:55 Clear 28 -2.2 19 -7.3 68 68 WNW 15 24 30.14 1021 10 16.0934 0 0
8:15 am 08:15 Sunny 28 -2.2 19 -7.3 68 68 WNW 17 28 30.15 1021 10 16.0934 0 0
8:35 am 08:35 Sunny 29 -1.7 19 -7.5 65 65 WNW 17 28 30.13 1020 10 16.0934 0 0
8:55 am 08:55 Sunny 29 -1.5 19 -7.3 65 65 NW 18 30 30.14 1021 10 16.0934 0 0
9:15 am 09:15 Sunny 30 -1 19 -7.1 64 64 NW 15 24 30.14 1021 10 16.0934 0 0
9:35 am 09:35 Sunny 31 -0.5 19 -7.2 61 61 NW 18 30 30.14 1021 10 16.0934 0 0
9:55 am 09:55 Sunny 32 0 19 -7.2 59 59 NW 20 31 30.14 1021 10 16.0934 0 0
10:15 am 10:15 Sunny 33 0.3 19 -7.1 58 58 NW 20 31 30.13 1020 10 16.0934 0 0
10:35 am 10:35 Sunny 34 1 20 -6.8 56 56 NW 17 28 30.13 1020 10 16.0934 0 0
10:55 am 10:55 Sunny 35 1.8 21 -6.3 55 55 NW 18 30 30.12 1020 10 16.0934 0 0
11:15 am 11:15 Sunny 37 2.6 21 -6.1 53 53 WNW 20 31 30.11 1020 10 16.0934 0 0
11:35 am 11:35 Sunny 38 3.5 21 -6.1 50 50 NW 17 28 30.09 1019 10 16.0934 0 0
11:55 am 11:55 Sunny 39 4 21 -6.1 48 48 NW 22 35 30.07 1018 10 16.0934 0 0
12:15 pm 12:15 Sunny 40 4.6 21 -6.1 46 46 WNW 18 30 30.05 1018 10 16.0934 0 0
12:35 pm 12:35 Sunny 41 5.1 21 -6.1 45 45 NW 18 30 30.04 1017 10 16.0934 0 0
12:55 pm 12:55 Sunny 42 5.3 21 -6.1 44 44 NW 18 30 30.03 1017 10 16.0934 0 0
1:15 pm 13:15 Sunny 42 5.7 20 -6.5 41 41 NW 21 33 30 1016 10 16.0934 0 0
1:35 pm 13:35 Sunny 43 6.1 20 -6.7 40 40 WNW 16 26 29.99 1015 10 16.0934 0 0
1:55 pm 13:55 Sunny 44 6.5 19 -7 38 38 WNW 20 31 29.97 1015 10 16.0934 0 0
2:15 pm 14:15 Sunny 45 7 19 -7.5 35 35 NW 23 37 29.96 1015 10 16.0934 0 0
2:35 pm 14:35 Sunny 44 6.4 17 -8.5 34 34 NW 21 33 29.95 1014 10 16.0934 0 0
2:55 pm 14:55 Sunny 44 6.8 16 -8.7 32 32 NW 17 28 29.95 1014 10 16.0934 0 0
3:15 pm 15:15 Sunny 45 7.1 16 -9.1 31 31 NW 21 33 29.95 1014 10 16.0934 0 0
3:35 pm 15:35 Sunny 45 7 14 -9.9 29 29 NW 23 37 29.95 1014 10 16.0934 0 0
3:55 pm 15:55 Sunny 44 6.5 14 -10.2 29 29 NW 15 24 29.95 1014 10 16.0934 0 0
4:15 pm 16:15 Sunny 42 5.5 15 -9.7 33 33 NW 13 20 29.95 1014 10 16.0934 0 0
4:35 pm 16:35 Sunny 41 4.8 15 -9.5 35 35 NW 9 15 29.95 1014 10 16.0934 0 0
4:55 pm 16:55 Sunny 37 2.9 16 -9.1 41 41 NW 7 11 29.97 1015 10 16.0934 0 0
5:15 pm 17:15 Sunny 34 1.2 15 -9.4 46 46 NW 7 11 29.98 1015 10 16.0934 0 0
5:35 pm 17:35 Sunny 33 0.7 14 -9.8 46 46 WNW 3 6 29.98 1015 10 16.0934 0 0
5:55 pm 17:55 Clear 33 0.5 15 -9.3 48 48 Calm 29.98 1015 10 16.0934 0 0
6:15 pm 18:15 Clear 32 -0.1 15 -9.2 51 51 WNW 5 7 29.98 1015 10 16.0934 0 0
6:35 pm 18:35 Clear 32 0 19 -7.2 59 59 WSW 3 6 29.98 1015 10 16.0934 0 0
6:55 pm 18:55 Clear 33 0.3 18 -7.8 55 55 SW 5 7 29.96 1015 10 16.0934 0 0
7:15 pm 19:15 Partly Cloudy 32 0.1 20 -6.7 61 61 SSW 3 6 29.96 1014 10 16.0934 0 0
7:35 pm 19:35 Partly Cloudy 34 1 18 -8 51 51 Calm 29.95 1014 10 16.0934 0 0
7:55 pm 19:55 Partly Cloudy 34 0.9 18 -7.9 52 52 Calm 29.94 1014 10 16.0934 0 0
8:15 pm 20:15 Partly Cloudy 33 0.5 20 -6.7 59 59 Calm 29.94 1014 10 16.0934 0 0
8:35 pm 20:35 Partly Cloudy 33 0.7 20 -6.9 57 57 SSW 3 6 29.94 1014 10 16.0934 0 0
8:55 pm 20:55 Cloudy 33 0.5 22 -5.5 64 64 Calm 29.94 1014 10 16.0934 0 0
9:15 pm 21:15 Cloudy 33 0.5 22 -5.7 64 64 Calm 29.94 1014 10 16.0934 0 0
9:35 pm 21:35 Cloudy 33 0.6 22 -5.3 65 65 Calm 29.94 1014 10 16.0934 0 0
9:55 pm 21:55 Cloudy 34 1 20 -6.4 58 58 S 3 6 29.94 1014 10 16.0934 0 0
10:15 pm 22:15 Cloudy 34 0.9 23 -4.9 66 66 Calm 29.93 1013 10 16.0934 0 0
10:35 pm 22:35 Cloudy 35 1.5 21 -6.3 57 57 S 3 6 29.92 1013 10 16.0934 0 0
10:55 pm 22:55 Cloudy 34 1.1 22 -5.8 60 60 S 5 7 29.92 1013 10 16.0934 0 0
11:15 pm 23:15 Partly Cloudy 33 0.3 22 -5.8 64 64 ESE 5 7 29.91 1013 10 16.0934 0 0
11:35 pm 23:35 Clear 34 1 18 -7.7 53 53 SE 3 6 29.91 1013 10 16.0934 0 0
11:55 pm 23:55 Partly Cloudy 32 0.2 22 -5.3 67 67 ENE 3 6 29.91 1013 10 16.0934 0 0

Powered by AerisWeather